Location: Bastelaar
(51.0950°N, 3.8602°E)
Time: 18:26:25
(UTC+00:00)

SJ-6F - Pass Details

Date: 18 November 2025
Orbit: 543 x 570 km, 97.9° (Epoch: 10 December)

Event Time Altitude Azimuth Distance (km) Brightness Sun altitude
Rises 17:01:06 0° 151° (SSE) 2,697 7.7 -10.6°
Reaches altitude 10° 17:03:14 10° 147° (SSE) 1,809 6.8 -10.9°
Maximum altitude 17:07:02 52° 71° (ENE) 684 4.4 -11.5°
Drops below altitude 10° 17:10:52 10° 355° (N) 1,829 6.9 -12.1°
Sets 17:13:03 0° 350° (N) 2,730 7.8 -12.4°
